Location: Tel Aviv
(32.0670°N, 34.7670°E)
Time: 16:37:38
(UTC+03:00)

Tiangong - Visible Passes

Search period start: 17 July 2024 00:00
Search period end: 27 July 2024 00:00
Orbit: 374 x 378 km, 41.5° (Epoch: 16 July)

Date Brightness Start Highest point End Pass type
(mag) Time Alt. Az. Time Alt. Az. Time Alt. Az.
17 Jul 0.5 03:23:41 17° N 03:23:41 17° N 03:25:39 10° NNE visible
17 Jul 0.7 04:58:55 10° NNW 05:00:54 15° N 05:02:52 10° NE visible
18 Jul 0.7 03:56:22 10° NW 03:58:09 14° N 03:59:57 10° NE visible
19 Jul 1.2 02:56:32 13° NNE 02:56:32 13° NNE 02:57:16 10° NNE visible
19 Jul 0.6 04:30:32 10° NW 04:32:46 18° NNE 04:35:00 10° ENE visible
20 Jul 0.7 03:29:06 14° NNW 03:29:57 15° N 03:31:51 10° NE visible
20 Jul -0.5 05:04:15 10° NW 05:07:08 35° NNE 05:10:01 10° E visible
21 Jul 0.3 04:01:50 10° NW 04:04:22 23° NNE 04:06:55 10° ENE visible
22 Jul 1.1 03:02:44 14° NE 03:02:44 14° NE 03:03:38 10° NE visible
22 Jul -1.5 04:35:28 10° NW 04:38:31 57° NNE 04:41:35 10° ESE visible
23 Jul -0.2 03:36:08 30° NE 03:36:08 30° NE 03:38:31 10° E visible
23 Jul -1.5 05:09:28 10° WNW 05:12:20 34° SW 05:15:11 10° SSE visible
24 Jul -2.0 04:10:04 61° SE 04:10:04 61° SE 04:12:43 10° ESE visible
24 Jul -0.8 20:36:22 10° SSW 20:38:45 21° SE 20:39:24 19° ESE visible
25 Jul -0.2 04:44:30 15° S 04:44:30 15° S 04:45:30 10° S visible
25 Jul -2.3 21:09:12 10° WSW 21:12:17 86° SSE 21:13:17 40° ENE visible
26 Jul -1.6 20:06:33 10° SW 20:09:26 37° SE 20:12:19 10° ENE visible
26 Jul -0.4 21:43:17 10° W 21:46:04 30° NNW 21:46:31 28° N visible
